This demonstration page uses our WeatherBlox Daily Observations layout. Learn more.

Left ArrowRight Arrow

41.12389, -100.76542

Hourly Observations for July 28, 2016

Temp ( °F °C ) Dew Point ( °F °C ) Humidity (%) Winds ( mph kmh ) Pressure ( in mb ) Visibility ( mi km ) Precip ( " mm )
12:53 am 00:53 Clear 66 18.9 60 15.6 81 81 NE 9 15 30.03 1017 10 16 0.00 0.00
1:53 am 01:53 Clear 64 17.8 60 15.6 87 87 Calm 30.04 1017 10 16 0.00 0.00
2:53 am 02:53 Clear 63 17.2 60 15.6 90 90 Calm 30.02 1017 10 16 0.00 0.00
3:53 am 03:53 Clear 62 16.7 60 15.6 93 93 Calm 30.02 1017 10 16 0.00 0.00
4:53 am 04:53 Clear 62 16.7 59 15 90 90 Calm 30.02 1017 10 16 0.00 0.00
5:53 am 05:53 Partly Cloudy 62 16.7 60 15.6 93 93 NNE 6 9 30.03 1017 10 16 0.00 0.00
6:53 am 06:53 Sunny 61 16.1 59 15 93 93 Calm 30.04 1017 10 16 0.00 0.00
7:53 am 07:53 Sunny 63 17.2 59 15 87 87 Calm 30.05 1018 10 16 0.00 0.00
8:53 am 08:53 Sunny 66 18.9 60 15.6 81 81 Calm 30.08 1019 10 16 0.00 0.00
9:42 am 09:42 Cloudy with Thunderstorms 64 17.8 61 16.1 90 90 NW 6 9 30.09 1019 4 6 0.03 0.76
9:53 am 09:53 Cloudy with Thunderstorms 63 17.2 61 16.1 93 93 WNW 13 20 30.16 1021 5 8 0.05 1.27
10:00 am 10:00 Cloudy with Thunderstorms 63 17 61 16 94 94 W 17 28 30.15 1021 6 10 0.00 0.00
10:07 am 10:07 Cloudy with Strong Thunderstorms 63 17.2 61 16.1 93 93 W 20 31 30.15 1021 2 2 0.08 2.03
10:14 am 10:14 Cloudy with Strong Thunderstorms 63 17 61 16 94 94 WNW 14 22 30.15 1021 1 2 0.00 0.00
10:22 am 10:22 Cloudy with Strong Thunderstorms 62 16.7 60 15.6 93 93 N 12 19 30.09 1019 2 2 0.51 12.95
10:35 am 10:35 Cloudy with Thunderstorms 61 16.1 60 15.6 97 97 ENE 20 31 30.03 1017 2 3 0.77 19.56
10:39 am 10:39 Cloudy with Thunderstorms 62 16.7 60 15.6 93 93 ENE 24 39 30.03 1017 3 5 0.78 19.81
10:45 am 10:45 Cloudy with Nearby Thunderstorms 63 17 59 15 88 88 ENE 29 46 29.91 1013 3 5 0.00 0.00
10:48 am 10:48 Cloudy with Nearby Thunderstorms 61 16 59 15 94 94 E 33 54 29.97 1015 1 2 0.00 0.00
10:53 am 10:53 Cloudy with Nearby Thunderstorms 63 17.2 60 15.6 90 90 E 33 54 30.01 1016 1 2 0.80 20.32
10:57 am 10:57 Cloudy with Light Rain 63 17 59 15 88 88 E 14 22 30.03 1017 3 4 0.00 0.00
11:04 am 11:04 Mostly Cloudy with Light Rain 64 18 61 16 88 88 W 8 13 30.00 1016 10 16 0.00 0.00
11:53 am 11:53 Sunny 69 20.6 61 16.1 76 76 SE 9 15 29.99 1016 10 16 0.01 0.25
12:49 pm 12:49 Mostly Cloudy with Nearby Thunderstorms 68 20 63 17 83 83 NW 20 31 30.06 1018 10 16 0.00 0.03
12:53 pm 12:53 Cloudy with Nearby Thunderstorms 67 19.4 63 17.2 87 87 NNW 15 24 30.07 1018 6 10 0.00 0.03
1:04 pm 13:04 Cloudy with Light Rain 66 19 64 18 94 94 NNW 10 17 30.06 1018 10 16 0.00 0.00
1:53 pm 13:53 Cloudy with Light Rain 67 19.4 63 17.2 87 87 NNW 7 11 30.10 1019 10 16 0.02 0.51
2:53 pm 14:53 Cloudy with Rain 65 18.3 64 17.8 97 97 S 7 11 30.09 1019 3 5 0.09 2.29
3:10 pm 15:10 Cloudy with Heavy Rain 64 18 63 17 94 94 SE 24 39 29.97 1015 3 5 0.00 0.00
3:53 pm 15:53 Mostly Sunny 69 20.6 65 18.3 87 87 NE 12 19 30.02 1017 10 16 0.12 3.05
4:53 pm 16:53 Mostly Sunny 73 22.8 61 16.1 66 66 ENE 6 9 30.04 1017 10 16 0.00 0.00
5:53 pm 17:53 Sunny 75 23.9 62 16.7 64 64 N 10 17 30.03 1017 10 16 0.00 0.00
6:53 pm 18:53 Sunny 75 23.9 61 16.1 62 62 N 9 15 30.03 1017 10 16 0.00 0.00
7:53 pm 19:53 Sunny 74 23.3 60 15.6 62 62 NE 3 6 30.03 1017 10 16 0.00 0.00
8:53 pm 20:53 Sunny 69 20.6 64 17.8 84 84 Calm 30.04 1017 10 16 0.00 0.00
9:53 pm 21:53 Clear 64 17.8 62 16.7 93 93 Calm 30.06 1018 10 16 0.00 0.00
10:53 pm 22:53 Clear 62 16.7 60 15.6 93 93 Calm 30.08 1019 10 16 0.00 0.00
11:53 pm 23:53 Clear 61 16 59 15 94 94 Calm 30.06 1018 10 16 0.00 0.00

Powered by AerisWeather